Back to catalog

SMDC ONE 2.3

AliveMilitaryVLEO
NORAD 39474·PAYLOAD·🇺🇸 United States

Launched Dec 6, 2013 from Vandenberg Space Force Base

Loading…

Next Passes (next 24 hours)

TLE

FreshSource: Space-Track

Epoch: Sep 14, 2026, 04:41 UTC

1 39474U 13072N   26257.19554857  .02039089  13510-4  12583-2 0  9992
2 39474 120.4260 154.6818 0009433 105.0168 255.1995 16.17364493131653

Track SMDC ONE 2.3 in real time with AllMySat

Download on the App Store